Time,TemperatureF,DewpointF,PressureIn,WindDirection,WindDirectionDegrees,WindSpeedMPH,WindSpeedGustMPH,Humidity,HourlyPrecipIn,Conditions,Clouds,dailyrainin,SoftwareType,DateUTC
2013-02-07 00:00:00,41.1,34.8,29.77,East,101,0.0,0.0,78,0.00,,,0.00,WeatherCatV1.13B119,2013-02-07 06:00:00,
2013-02-07 00:05:00,40.8,34.2,29.77,East,101,0.0,0.0,77,0.00,,,0.00,WeatherCatV1.13B119,2013-02-07 06:05:00,
2013-02-07 00:10:00,40.5,34.2,29.77,East,101,0.0,0.0,78,0.00,,,0.00,WeatherCatV1.13B119,2013-02-07 06:10:00,
2013-02-07 00:15:00,40.2,33.9,29.78,NNE,25,2.0,4.0,78,0.00,,,0.00,WeatherCatV1.13B119,2013-02-07 06:15:00,
2013-02-07 00:20:00,39.8,33.8,29.78,NNE,25,0.0,1.0,79,0.00,,,0.00,WeatherCatV1.13B119,2013-02-07 06:20:00,
2013-02-07 00:25:00,39.5,34.2,29.78,NW,315,0.0,3.0,81,0.00,,,0.00,WeatherCatV1.13B119,2013-02-07 06:25:00,
2013-02-07 00:30:00,39.6,34.3,29.78,NW,315,0.0,1.0,81,0.00,,,0.00,WeatherCatV1.13B119,2013-02-07 06:30:00,
2013-02-07 00:35:00,39.8,34.5,29.78,NW,315,0.0,3.0,81,0.00,,,0.00,WeatherCatV1.13B119,2013-02-07 06:35:00,
2013-02-07 00:40:00,39.9,34.6,29.78,NW,315,3.0,3.0,81,0.00,,,0.00,WeatherCatV1.13B119,2013-02-07 06:40:00,
2013-02-07 00:45:00,39.9,34.6,29.78,NW,315,0.0,0.0,81,0.00,,,0.00,WeatherCatV1.13B119,2013-02-07 06:45:00,
2013-02-07 00:50:00,39.6,34.3,29.78,NW,315,0.0,0.0,81,0.00,,,0.00,WeatherCatV1.13B119,2013-02-07 06:50:00,
2013-02-07 00:53:00,39.6,34.3,29.78,NW,315,0.0,0.0,81,0.00,,,0.00,WeatherCatV1.13B119,2013-02-07 06:53:00,
2013-02-07 00:58:00,39.3,34.0,29.78,NW,315,0.0,0.0,81,0.00,,,0.00,WeatherCatV1.13B119,2013-02-07 06:58:00,
2013-02-07 01:03:00,39.1,33.8,29.78,NW,315,0.0,0.0,81,0.00,,,0.00,WeatherCatV1.13B119,2013-02-07 07:03:00,
2013-02-07 01:08:00,38.9,33.6,29.78,NW,315,0.0,0.0,81,0.00,,,0.00,WeatherCatV1.13B119,2013-02-07 07:08:00,
2013-02-07 01:13:00,38.8,34.1,29.78,NW,315,0.0,0.0,83,0.00,,,0.00,WeatherCatV1.13B119,2013-02-07 07:13:00,
2013-02-07 01:18:00,38.9,34.2,29.77,NW,315,0.0,0.0,83,0.00,,,0.00,WeatherCatV1.13B119,2013-02-07 07:18:00,
2013-02-07 01:23:00,39.1,34.4,29.77,NW,315,0.0,1.0,83,0.00,,,0.00,WeatherCatV1.13B119,2013-02-07 07:23:00,
2013-02-07 01:28:00,38.9,33.9,29.77,NW,315,0.0,2.0,82,0.00,,,0.00,WeatherCatV1.13B119,2013-02-07 07:28:00,
2013-02-07 01:33:00,38.6,33.6,29.78,NW,315,0.0,1.0,82,0.00,,,0.00,WeatherCatV1.13B119,2013-02-07 07:33:00,
2013-02-07 01:38:00,38.3,33.6,29.78,NW,315,0.0,0.0,83,0.00,,,0.00,WeatherCatV1.13B119,2013-02-07 07:38:00,
2013-02-07 01:43:00,38.3,33.9,29.78,NW,315,0.0,0.0,84,0.00,,,0.00,WeatherCatV1.13B119,2013-02-07 07:43:00,
2013-02-07 01:48:00,38.5,34.1,29.78,NW,315,0.0,1.0,84,0.00,,,0.00,WeatherCatV1.13B119,2013-02-07 07:48:00,
2013-02-07 01:53:00,38.6,34.2,29.78,NW,315,0.0,0.0,84,0.00,,,0.00,WeatherCatV1.13B119,2013-02-07 07:53:00,
2013-02-07 01:58:00,38.8,34.4,29.78,NW,315,0.0,1.0,84,0.00,,,0.00,WeatherCatV1.13B119,2013-02-07 07:58:00,
2013-02-07 02:03:00,38.9,34.2,29.78,NW,315,0.0,0.0,83,0.00,,,0.00,WeatherCatV1.13B119,2013-02-07 08:03:00,
2013-02-07 02:08:00,39.1,34.4,29.78,NW,315,0.0,0.0,83,0.00,,,0.00,WeatherCatV1.13B119,2013-02-07 08:08:00,
2013-02-07 02:13:00,39.2,34.5,29.78,NW,315,0.0,0.0,83,0.00,,,0.00,WeatherCatV1.13B119,2013-02-07 08:13:00,
2013-02-07 02:18:00,39.5,34.5,29.78,NW,311,0.0,3.0,82,0.00,,,0.00,WeatherCatV1.13B119,2013-02-07 08:18:00,
2013-02-07 02:23:00,39.6,34.6,29.78,NW,311,0.0,0.0,82,0.00,,,0.00,WeatherCatV1.13B119,2013-02-07 08:23:00,
2013-02-07 02:28:00,39.6,34.3,29.78,WNW,294,0.0,2.0,81,0.00,,,0.00,WeatherCatV1.13B119,2013-02-07 08:28:00,
2013-02-07 02:33:00,39.6,34.3,29.78,WNW,294,0.0,0.0,81,0.00,,,0.00,WeatherCatV1.13B119,2013-02-07 08:33:00,
2013-02-07 02:38:00,39.5,34.2,29.78,WNW,294,0.0,0.0,81,0.00,,,0.00,WeatherCatV1.13B119,2013-02-07 08:38:00,
2013-02-07 02:43:00,39.3,34.0,29.78,WNW,294,0.0,0.0,81,0.00,,,0.00,WeatherCatV1.13B119,2013-02-07 08:43:00,
2013-02-07 02:48:00,39.2,33.9,29.80,West,275,1.0,5.0,81,0.00,,,0.00,WeatherCatV1.13B119,2013-02-07 08:48:00,
2013-02-07 02:53:00,38.8,33.8,29.80,West,268,0.0,2.0,82,0.00,,,0.00,WeatherCatV1.13B119,2013-02-07 08:53:00,
2013-02-07 02:58:00,38.3,33.6,29.80,NW,308,2.0,4.0,83,0.00,,,0.00,WeatherCatV1.13B119,2013-02-07 08:58:00,
2013-02-07 03:03:00,38.3,33.6,29.79,NW,313,0.0,1.0,83,0.00,,,0.00,WeatherCatV1.13B119,2013-02-07 09:03:00,
2013-02-07 03:08:00,38.2,33.5,29.79,NW,313,0.0,0.0,83,0.00,,,0.00,WeatherCatV1.13B119,2013-02-07 09:08:00,
2013-02-07 03:13:00,38.0,33.6,29.79,NW,313,0.0,1.0,84,0.00,,,0.00,WeatherCatV1.13B119,2013-02-07 09:13:00,
2013-02-07 03:18:00,38.0,33.6,29.78,NW,313,0.0,0.0,84,0.00,,,0.00,WeatherCatV1.13B119,2013-02-07 09:18:00,
2013-02-07 03:23:00,38.0,33.6,29.78,NW,313,0.0,0.0,84,0.00,,,0.00,WeatherCatV1.13B119,2013-02-07 09:23:00,
2013-02-07 03:28:00,38.2,33.8,29.78,NW,313,0.0,0.0,84,0.00,,,0.00,WeatherCatV1.13B119,2013-02-07 09:28:00,
2013-02-07 03:33:00,38.3,33.9,29.78,NW,313,0.0,1.0,84,0.00,,,0.00,WeatherCatV1.13B119,2013-02-07 09:33:00,
2013-02-07 03:38:00,38.5,33.8,29.78,NW,313,1.0,1.0,83,0.00,,,0.00,WeatherCatV1.13B119,2013-02-07 09:38:00,
2013-02-07 03:43:00,38.5,33.8,29.78,NW,311,0.0,2.0,83,0.00,,,0.00,WeatherCatV1.13B119,2013-02-07 09:43:00,
2013-02-07 03:48:00,38.5,33.5,29.78,NW,311,1.0,2.0,82,0.00,,,0.00,WeatherCatV1.13B119,2013-02-07 09:48:00,
2013-02-07 03:53:00,38.3,33.6,29.78,WNW,303,0.0,1.0,83,0.00,,,0.00,WeatherCatV1.13B119,2013-02-07 09:53:00,
2013-02-07 03:58:00,38.3,33.6,29.78,WNW,302,0.0,0.0,83,0.00,,,0.00,WeatherCatV1.13B119,2013-02-07 09:58:00,
2013-02-07 04:03:00,38.2,33.5,29.78,WNW,302,2.0,3.0,83,0.00,,,0.00,WeatherCatV1.13B119,2013-02-07 10:03:00,
2013-02-07 04:08:00,38.0,33.3,29.78,WNW,302,0.0,2.0,83,0.00,,,0.00,WeatherCatV1.13B119,2013-02-07 10:08:00,
2013-02-07 04:13:00,37.9,33.5,29.78,WNW,294,2.0,2.0,84,0.00,,,0.00,WeatherCatV1.13B119,2013-02-07 10:13:00,
2013-02-07 04:18:00,37.8,33.4,29.78,WNW,294,1.0,3.0,84,0.00,,,0.00,WeatherCatV1.13B119,2013-02-07 10:18:00,
2013-02-07 04:23:00,37.8,33.4,29.78,NNW,331,1.0,2.0,84,0.00,,,0.00,WeatherCatV1.13B119,2013-02-07 10:23:00,
2013-02-07 04:28:00,37.8,33.4,29.78,NW,325,0.0,2.0,84,0.00,,,0.00,WeatherCatV1.13B119,2013-02-07 10:28:00,
2013-02-07 04:33:00,37.8,33.4,29.80,NW,310,1.0,3.0,84,0.00,,,0.00,WeatherCatV1.13B119,2013-02-07 10:33:00,
2013-02-07 04:38:00,37.6,33.2,29.80,NW,306,0.0,1.0,84,0.00,,,0.00,WeatherCatV1.13B119,2013-02-07 10:38:00,
2013-02-07 04:43:00,37.6,33.2,29.80,NW,306,0.0,2.0,84,0.00,,,0.00,WeatherCatV1.13B119,2013-02-07 10:43:00,
2013-02-07 04:48:00,37.5,33.1,29.80,WNW,284,0.0,2.0,84,0.00,,,0.00,WeatherCatV1.13B119,2013-02-07 10:48:00,
2013-02-07 04:53:00,37.5,33.4,29.80,NW,310,1.0,5.0,85,0.00,,,0.00,WeatherCatV1.13B119,2013-02-07 10:53:00,
2013-02-07 04:58:00,37.5,33.1,29.80,NW,311,0.0,2.0,84,0.00,,,0.00,WeatherCatV1.13B119,2013-02-07 10:58:00,
2013-02-07 05:03:00,37.6,33.2,29.80,NW,310,0.0,1.0,84,0.00,,,0.00,WeatherCatV1.13B119,2013-02-07 11:03:00,
2013-02-07 05:08:00,37.8,33.4,29.80,NW,309,0.0,2.0,84,0.00,,,0.00,WeatherCatV1.13B119,2013-02-07 11:08:00,
2013-02-07 05:13:00,37.8,33.1,29.80,NW,323,3.0,3.0,83,0.00,,,0.00,WeatherCatV1.13B119,2013-02-07 11:13:00,
2013-02-07 05:18:00,38.0,33.0,29.82,NW,321,3.0,3.0,82,0.00,,,0.00,WeatherCatV1.13B119,2013-02-07 11:18:00,
2013-02-07 05:23:00,38.2,32.9,29.82,NW,319,2.0,5.0,81,0.00,,,0.00,WeatherCatV1.13B119,2013-02-07 11:23:00,
2013-02-07 05:28:00,38.2,32.6,29.82,NNW,340,4.0,5.0,80,0.00,,,0.00,WeatherCatV1.13B119,2013-02-07 11:28:00,
2013-02-07 05:33:00,38.2,32.6,29.82,WSW,250,0.0,6.0,80,0.00,,,0.00,WeatherCatV1.13B119,2013-02-07 11:33:00,
2013-02-07 05:38:00,38.0,32.1,29.82,NW,317,1.0,7.0,79,0.00,,,0.00,WeatherCatV1.13B119,2013-02-07 11:38:00,
2013-02-07 05:43:00,38.0,32.1,29.82,SW,214,5.0,5.0,79,0.00,,,0.00,WeatherCatV1.13B119,2013-02-07 11:43:00,
2013-02-07 05:48:00,38.0,32.1,29.83,NW,315,10.0,10.0,79,0.00,,,0.00,WeatherCatV1.13B119,2013-02-07 11:48:00,
2013-02-07 05:53:00,37.9,32.0,29.83,NW,323,6.0,10.0,79,0.00,,,0.00,WeatherCatV1.13B119,2013-02-07 11:53:00,
2013-02-07 05:58:00,37.8,31.9,29.83,NW,318,3.0,9.0,79,0.00,,,0.00,WeatherCatV1.13B119,2013-02-07 11:58:00,
2013-02-07 06:03:00,37.6,31.7,29.83,NW,311,1.0,4.0,79,0.00,,,0.00,WeatherCatV1.13B119,2013-02-07 12:03:00,
2013-02-07 06:08:00,37.5,31.9,29.83,NW,325,2.0,9.0,80,0.00,,,0.00,WeatherCatV1.13B119,2013-02-07 12:08:00,
2013-02-07 06:13:00,37.3,31.7,29.83,NW,319,2.0,4.0,80,0.00,,,0.00,WeatherCatV1.13B119,2013-02-07 12:13:00,
2013-02-07 06:18:00,37.2,31.6,29.83,NW,321,1.0,5.0,80,0.00,,,0.00,WeatherCatV1.13B119,2013-02-07 12:18:00,
2013-02-07 06:23:00,37.0,31.4,29.83,NW,321,4.0,5.0,80,0.00,,,0.00,WeatherCatV1.13B119,2013-02-07 12:23:00,
2013-02-07 06:28:00,37.0,31.7,29.83,NNW,329,0.0,2.0,81,0.00,,,0.00,WeatherCatV1.13B119,2013-02-07 12:28:00,
2013-02-07 06:33:00,36.9,31.6,29.84,NNW,329,0.0,1.0,81,0.00,,,0.00,WeatherCatV1.13B119,2013-02-07 12:33:00,
2013-02-07 06:38:00,36.8,31.5,29.84,NNW,329,0.0,1.0,81,0.00,,,0.00,WeatherCatV1.13B119,2013-02-07 12:38:00,
2013-02-07 06:43:00,36.8,31.5,29.84,NNW,329,2.0,2.0,81,0.00,,,0.00,WeatherCatV1.13B119,2013-02-07 12:43:00,
2013-02-07 06:48:00,36.6,31.3,29.84,NNW,328,1.0,4.0,81,0.00,,,0.00,WeatherCatV1.13B119,2013-02-07 12:48:00,
2013-02-07 06:53:00,36.5,31.5,29.84,NNW,330,3.0,6.0,82,0.00,,,0.00,WeatherCatV1.13B119,2013-02-07 12:53:00,
2013-02-07 06:58:00,36.5,31.5,29.84,NNW,348,3.0,3.0,82,0.00,,,0.00,WeatherCatV1.13B119,2013-02-07 12:58:00,
2013-02-07 07:03:00,36.3,31.3,29.85,NNW,336,1.0,2.0,82,0.00,,,0.00,WeatherCatV1.13B119,2013-02-07 13:03:00,
2013-02-07 07:08:00,36.2,31.2,29.85,NW,319,4.0,4.0,82,0.00,,,0.00,WeatherCatV1.13B119,2013-02-07 13:08:00,
2013-02-07 07:13:00,36.0,31.3,29.85,NW,325,1.0,6.0,83,0.00,,,0.00,WeatherCatV1.13B119,2013-02-07 13:13:00,
2013-02-07 07:18:00,35.9,31.2,29.86,NW,309,0.0,7.0,83,0.00,,,0.00,WeatherCatV1.13B119,2013-02-07 13:18:00,
2013-02-07 07:23:00,35.8,31.2,29.86,NNW,341,5.0,7.0,83,0.00,,,0.00,WeatherCatV1.13B119,2013-02-07 13:23:00,
2013-02-07 07:28:00,35.6,31.0,29.86,NW,311,0.0,6.0,83,0.00,,,0.00,WeatherCatV1.13B119,2013-02-07 13:28:00,
2013-02-07 07:33:00,35.5,31.2,29.87,NW,317,1.0,4.0,84,0.00,,,0.00,WeatherCatV1.13B119,2013-02-07 13:33:00,
2013-02-07 07:38:00,35.3,31.0,29.87,NNW,328,2.0,4.0,84,0.00,,,0.00,WeatherCatV1.13B119,2013-02-07 13:38:00,
2013-02-07 07:43:00,35.3,31.0,29.87,NNW,329,3.0,9.0,84,0.00,,,0.00,WeatherCatV1.13B119,2013-02-07 13:43:00,
2013-02-07 07:48:00,35.3,31.0,29.89,NW,309,2.0,8.0,84,0.00,,,0.00,WeatherCatV1.13B119,2013-02-07 13:48:00,
2013-02-07 07:53:00,35.2,30.9,29.89,WNW,300,2.0,12.0,84,0.00,,,0.00,WeatherCatV1.13B119,2013-02-07 13:53:00,
2013-02-07 07:58:00,35.2,30.9,29.89,NNW,327,2.0,7.0,84,0.00,,,0.00,WeatherCatV1.13B119,2013-02-07 13:58:00,
2013-02-07 08:03:00,35.0,31.0,29.90,NW,316,0.0,7.0,85,0.00,,,0.00,WeatherCatV1.13B119,2013-02-07 14:03:00,
2013-02-07 08:08:00,34.9,30.9,29.90,NNW,332,10.0,10.0,85,0.00,,,0.00,WeatherCatV1.13B119,2013-02-07 14:08:00,
2013-02-07 08:13:00,34.9,30.9,29.90,WNW,293,4.0,13.0,85,0.00,,,0.00,WeatherCatV1.13B119,2013-02-07 14:13:00,
2013-02-07 08:18:00,34.7,30.7,29.91,West,273,3.0,7.0,85,0.00,,,0.00,WeatherCatV1.13B119,2013-02-07 14:18:00,
2013-02-07 08:23:00,34.6,30.6,29.91,NW,326,4.0,7.0,85,0.00,,,0.00,WeatherCatV1.13B119,2013-02-07 14:23:00,
2013-02-07 08:28:00,34.4,30.7,29.91,NNW,329,1.0,7.0,86,0.00,,,0.00,WeatherCatV1.13B119,2013-02-07 14:28:00,
2013-02-07 08:33:00,34.4,30.7,29.92,NW,317,2.0,2.0,86,0.00,,,0.00,WeatherCatV1.13B119,2013-02-07 14:33:00,
2013-02-07 08:38:00,34.4,30.7,29.92,NW,321,6.0,7.0,86,0.00,,,0.00,WeatherCatV1.13B119,2013-02-07 14:38:00,
2013-02-07 08:43:00,34.3,30.8,29.92,NW,325,1.0,6.0,87,0.00,,,0.00,WeatherCatV1.13B119,2013-02-07 14:43:00,
2013-02-07 08:48:00,34.3,30.8,29.93,NW,323,7.0,7.0,87,0.00,,,0.00,WeatherCatV1.13B119,2013-02-07 14:48:00,
2013-02-07 08:53:00,34.3,30.8,29.93,NNW,337,4.0,12.0,87,0.00,,,0.00,WeatherCatV1.13B119,2013-02-07 14:53:00,
2013-02-07 08:58:00,34.3,30.8,29.93,NW,315,5.0,6.0,87,0.00,,,0.00,WeatherCatV1.13B119,2013-02-07 14:58:00,
2013-02-07 09:03:00,34.3,30.8,29.94,NNW,329,1.0,7.0,87,0.00,,,0.00,WeatherCatV1.13B119,2013-02-07 15:03:00,
2013-02-07 09:08:00,34.3,30.8,29.94,NNW,331,1.0,7.0,87,0.00,,,0.00,WeatherCatV1.13B119,2013-02-07 15:08:00,
2013-02-07 09:13:00,34.3,30.8,29.94,NNW,331,3.0,11.0,87,0.00,,,0.00,WeatherCatV1.13B119,2013-02-07 15:13:00,
2013-02-07 09:18:00,34.4,30.9,29.94,NW,317,4.0,12.0,87,0.00,,,0.00,WeatherCatV1.13B119,2013-02-07 15:18:00,
2013-02-07 09:23:00,34.4,30.9,29.94,NNW,331,6.0,10.0,87,0.00,,,0.00,WeatherCatV1.13B119,2013-02-07 15:23:00,
2013-02-07 09:28:00,34.6,31.1,29.94,NW,307,6.0,10.0,87,0.00,,,0.00,WeatherCatV1.13B119,2013-02-07 15:28:00,
2013-02-07 09:33:00,34.7,31.2,29.93,WSW,250,3.0,4.0,87,0.00,,,0.00,WeatherCatV1.13B119,2013-02-07 15:33:00,
2013-02-07 09:38:00,34.7,30.9,29.93,NNW,330,10.0,10.0,86,0.00,,,0.00,WeatherCatV1.13B119,2013-02-07 15:38:00,
2013-02-07 09:43:00,34.6,30.9,29.93,NNW,348,3.0,10.0,86,0.00,,,0.00,WeatherCatV1.13B119,2013-02-07 15:43:00,
2013-02-07 09:48:00,34.6,30.9,29.94,NNW,329,5.0,15.0,86,0.00,,,0.00,WeatherCatV1.13B119,2013-02-07 15:48:00,
2013-02-07 09:53:00,34.4,30.4,29.94,NNW,335,5.0,14.0,85,0.00,,,0.00,WeatherCatV1.13B119,2013-02-07 15:53:00,
2013-02-07 09:58:00,34.6,30.6,29.94,NW,315,2.0,4.0,85,0.00,,,0.00,WeatherCatV1.13B119,2013-02-07 15:58:00,
2013-02-07 10:03:00,34.4,30.4,29.95,NW,307,6.0,11.0,85,0.00,,,0.00,WeatherCatV1.13B119,2013-02-07 16:03:00,
2013-02-07 10:08:00,34.1,30.1,29.95,NNW,330,8.0,13.0,85,0.00,,,0.00,WeatherCatV1.13B119,2013-02-07 16:08:00,
2013-02-07 10:13:00,34.1,30.1,29.95,North,350,10.0,10.0,85,0.00,,,0.00,WeatherCatV1.13B119,2013-02-07 16:13:00,
2013-02-07 10:18:00,34.1,29.8,29.96,NNW,333,7.0,16.0,84,0.00,,,0.00,WeatherCatV1.13B119,2013-02-07 16:18:00,
2013-02-07 10:23:00,34.0,29.4,29.96,NW,315,11.0,14.0,83,0.00,,,0.00,WeatherCatV1.13B119,2013-02-07 16:23:00,
2013-02-07 10:28:00,34.0,29.4,29.96,NNW,344,13.0,14.0,83,0.00,,,0.00,WeatherCatV1.13B119,2013-02-07 16:28:00,
2013-02-07 10:33:00,34.0,29.4,29.97,NNW,339,0.0,13.0,83,0.00,,,0.00,WeatherCatV1.13B119,2013-02-07 16:33:00,
2013-02-07 10:38:00,34.1,29.2,29.97,NE,36,9.0,16.0,82,0.00,,,0.00,WeatherCatV1.13B119,2013-02-07 16:38:00,
2013-02-07 10:43:00,34.4,29.5,29.97,NW,319,10.0,14.0,82,0.00,,,0.00,WeatherCatV1.13B119,2013-02-07 16:43:00,
2013-02-07 10:48:00,35.0,30.1,29.97,NNW,346,9.0,14.0,82,0.00,,,0.00,WeatherCatV1.13B119,2013-02-07 16:48:00,
2013-02-07 10:53:00,35.3,30.1,29.97,NNW,332,5.0,15.0,81,0.00,,,0.00,WeatherCatV1.13B119,2013-02-07 16:53:00,
2013-02-07 10:58:00,35.5,30.0,29.97,NNW,331,6.0,17.0,80,0.00,,,0.00,WeatherCatV1.13B119,2013-02-07 16:58:00,
2013-02-07 11:03:00,35.5,30.0,29.97,NW,326,4.0,9.0,80,0.00,,,0.00,WeatherCatV1.13B119,2013-02-07 17:03:00,
2013-02-07 11:08:00,35.8,30.2,29.97,NW,315,10.0,12.0,80,0.00,,,0.00,WeatherCatV1.13B119,2013-02-07 17:08:00,
2013-02-07 11:13:00,35.6,29.7,29.97,WNW,300,8.0,11.0,79,0.00,,,0.00,WeatherCatV1.13B119,2013-02-07 17:13:00,
2013-02-07 11:18:00,35.6,29.7,29.98,NNW,348,10.0,13.0,79,0.00,,,0.00,WeatherCatV1.13B119,2013-02-07 17:18:00,
2013-02-07 11:23:00,35.8,29.6,29.98,NNW,338,10.0,13.0,78,0.00,,,0.00,WeatherCatV1.13B119,2013-02-07 17:23:00,
2013-02-07 11:28:00,35.8,29.6,29.98,NW,313,4.0,7.0,78,0.00,,,0.00,WeatherCatV1.13B119,2013-02-07 17:28:00,
2013-02-07 11:33:00,35.6,29.4,29.99,NW,308,3.0,9.0,78,0.00,,,0.00,WeatherCatV1.13B119,2013-02-07 17:33:00,
2013-02-07 11:38:00,35.5,29.0,29.99,NW,326,6.0,11.0,77,0.00,,,0.00,WeatherCatV1.13B119,2013-02-07 17:38:00,
2013-02-07 11:43:00,35.5,29.0,29.99,WNW,282,3.0,8.0,77,0.00,,,0.00,WeatherCatV1.13B119,2013-02-07 17:43:00,
2013-02-07 11:48:00,35.8,29.0,29.99,NNW,347,8.0,12.0,76,0.00,,,0.00,WeatherCatV1.13B119,2013-02-07 17:48:00,
2013-02-07 11:53:00,35.9,29.1,29.99,NNW,340,9.0,13.0,76,0.00,,,0.00,WeatherCatV1.13B119,2013-02-07 17:53:00,
2013-02-07 11:58:00,35.9,28.1,29.99,NW,304,5.0,18.0,73,0.00,,,0.00,WeatherCatV1.13B119,2013-02-07 17:58:00,
2013-02-07 12:03:00,35.9,28.8,29.99,NW,318,7.0,12.0,75,0.00,,,0.00,WeatherCatV1.13B119,2013-02-07 18:03:00,
2013-02-07 12:08:00,35.6,28.1,29.99,WNW,301,5.0,11.0,74,0.00,,,0.00,WeatherCatV1.13B119,2013-02-07 18:08:00,
2013-02-07 12:13:00,35.3,28.2,29.99,NW,320,5.0,8.0,75,0.00,,,0.00,WeatherCatV1.13B119,2013-02-07 18:13:00,
2013-02-07 12:18:00,35.3,28.5,29.99,NW,312,2.0,12.0,76,0.00,,,0.00,WeatherCatV1.13B119,2013-02-07 18:18:00,
2013-02-07 12:23:00,35.0,28.2,29.99,North,355,9.0,16.0,76,0.00,,,0.00,WeatherCatV1.13B119,2013-02-07 18:23:00,
2013-02-07 12:28:00,34.7,27.9,29.99,NNW,341,9.0,15.0,76,0.00,,,0.00,WeatherCatV1.13B119,2013-02-07 18:28:00,
2013-02-07 12:33:00,34.4,27.6,29.99,North,349,4.0,14.0,76,0.00,,,0.00,WeatherCatV1.13B119,2013-02-07 18:33:00,
2013-02-07 12:38:00,34.3,27.5,29.99,NW,313,10.0,14.0,76,0.00,,,0.00,WeatherCatV1.13B119,2013-02-07 18:38:00,
2013-02-07 12:43:00,34.0,27.6,29.99,NW,317,9.0,18.0,77,0.00,,,0.00,WeatherCatV1.13B119,2013-02-07 18:43:00,
2013-02-07 12:48:00,34.0,27.9,29.99,NNW,333,12.0,14.0,78,0.00,,,0.00,WeatherCatV1.13B119,2013-02-07 18:48:00,
2013-02-07 12:53:00,34.0,27.6,29.99,NW,313,6.0,19.0,77,0.00,,,0.00,WeatherCatV1.13B119,2013-02-07 18:53:00,
2013-02-07 12:58:00,34.1,28.0,29.99,NNW,344,6.0,13.0,78,0.00,,,0.00,WeatherCatV1.13B119,2013-02-07 18:58:00,
2013-02-07 13:03:00,34.1,28.0,29.99,NNW,331,5.0,7.0,78,0.00,,,0.00,WeatherCatV1.13B119,2013-02-07 19:03:00,
2013-02-07 13:08:00,34.1,28.0,29.99,NW,314,5.0,10.0,78,0.00,,,0.00,WeatherCatV1.13B119,2013-02-07 19:08:00,
2013-02-07 13:13:00,33.8,27.7,29.99,NNW,338,7.0,10.0,78,0.00,,,0.00,WeatherCatV1.13B119,2013-02-07 19:13:00,
2013-02-07 13:18:00,33.7,27.9,29.99,NW,326,4.0,11.0,79,0.00,,,0.00,WeatherCatV1.13B119,2013-02-07 19:18:00,
2013-02-07 13:23:00,33.4,27.6,29.99,NNW,335,10.0,20.0,79,0.00,,,0.00,WeatherCatV1.13B119,2013-02-07 19:23:00,
2013-02-07 13:28:00,33.1,27.6,29.99,NW,325,11.0,15.0,80,0.00,,,0.00,WeatherCatV1.13B119,2013-02-07 19:28:00,
2013-02-07 13:33:00,33.1,27.6,29.99,NW,317,16.0,16.0,80,0.00,,,0.00,WeatherCatV1.13B119,2013-02-07 19:33:00,
2013-02-07 13:38:00,32.9,27.4,29.99,NW,321,15.0,19.0,80,0.00,,,0.00,WeatherCatV1.13B119,2013-02-07 19:38:00,
2013-02-07 13:43:00,32.9,27.4,29.99,NNW,336,5.0,14.0,80,0.00,,,0.00,WeatherCatV1.13B119,2013-02-07 19:43:00,
2013-02-07 13:48:00,33.1,27.6,29.99,NW,317,5.0,9.0,80,0.00,,,0.00,WeatherCatV1.13B119,2013-02-07 19:48:00,
2013-02-07 13:53:00,33.1,27.6,29.99,NW,326,6.0,11.0,80,0.00,,,0.00,WeatherCatV1.13B119,2013-02-07 19:53:00,
2013-02-07 13:58:00,33.1,27.6,29.99,NNE,20,12.0,12.0,80,0.00,,,0.00,WeatherCatV1.13B119,2013-02-07 19:58:00,
2013-02-07 14:03:00,33.1,27.6,30.00,NNW,341,2.0,10.0,80,0.00,,,0.00,WeatherCatV1.13B119,2013-02-07 20:03:00,
2013-02-07 14:08:00,33.1,27.6,30.00,North,355,7.0,10.0,80,0.00,,,0.00,WeatherCatV1.13B119,2013-02-07 20:08:00,
2013-02-07 14:13:00,33.1,27.3,30.00,NNW,330,3.0,7.0,79,0.00,,,0.00,WeatherCatV1.13B119,2013-02-07 20:13:00,
2013-02-07 14:18:00,33.1,27.3,30.00,North,355,8.0,12.0,79,0.00,,,0.00,WeatherCatV1.13B119,2013-02-07 20:18:00,
2013-02-07 14:23:00,33.2,27.4,30.00,NW,316,6.0,14.0,79,0.00,,,0.00,WeatherCatV1.13B119,2013-02-07 20:23:00,
2013-02-07 14:28:00,33.2,27.4,30.00,NNW,336,9.0,11.0,79,0.00,,,0.00,WeatherCatV1.13B119,2013-02-07 20:28:00,
2013-02-07 14:33:00,33.4,27.3,30.00,NNW,333,7.0,16.0,78,0.00,,,0.00,WeatherCatV1.13B119,2013-02-07 20:33:00,
2013-02-07 14:38:00,33.2,27.1,30.00,NW,326,9.0,11.0,78,0.00,,,0.00,WeatherCatV1.13B119,2013-02-07 20:38:00,
2013-02-07 14:43:00,33.2,26.8,30.00,NNW,331,6.0,12.0,77,0.00,,,0.00,WeatherCatV1.13B119,2013-02-07 20:43:00,
2013-02-07 14:48:00,33.1,26.7,30.00,NNW,334,3.0,14.0,77,0.00,,,0.00,WeatherCatV1.13B119,2013-02-07 20:48:00,
2013-02-07 14:53:00,33.1,26.7,30.00,NNW,341,17.0,18.0,77,0.00,,,0.00,WeatherCatV1.13B119,2013-02-07 20:53:00,
2013-02-07 14:58:00,32.9,26.5,30.00,NNW,340,7.0,15.0,77,0.00,,,0.00,WeatherCatV1.13B119,2013-02-07 20:58:00,
2013-02-07 15:03:00,32.9,26.5,30.01,NW,317,5.0,12.0,77,0.00,,,0.00,WeatherCatV1.13B119,2013-02-07 21:03:00,
2013-02-07 15:08:00,32.9,26.5,30.01,NW,322,9.0,17.0,77,0.00,,,0.00,WeatherCatV1.13B119,2013-02-07 21:08:00,
2013-02-07 15:13:00,32.9,26.5,30.01,NW,313,6.0,14.0,77,0.00,,,0.00,WeatherCatV1.13B119,2013-02-07 21:13:00,
2013-02-07 15:18:00,33.1,26.4,30.01,NW,314,9.0,17.0,76,0.00,,,0.00,WeatherCatV1.13B119,2013-02-07 21:18:00,
2013-02-07 15:23:00,33.1,26.4,30.01,NNW,333,11.0,15.0,76,0.00,,,0.00,WeatherCatV1.13B119,2013-02-07 21:23:00,
2013-02-07 15:28:00,33.1,26.7,30.01,NW,323,9.0,11.0,77,0.00,,,0.00,WeatherCatV1.13B119,2013-02-07 21:28:00,
2013-02-07 15:33:00,33.2,26.5,30.01,NNW,329,5.0,11.0,76,0.00,,,0.00,WeatherCatV1.13B119,2013-02-07 21:33:00,
2013-02-07 15:38:00,33.2,26.5,30.01,NNW,348,2.0,13.0,76,0.00,,,0.00,WeatherCatV1.13B119,2013-02-07 21:38:00,
2013-02-07 15:43:00,33.2,26.1,30.01,NNW,327,5.0,15.0,75,0.00,,,0.00,WeatherCatV1.13B119,2013-02-07 21:43:00,
2013-02-07 15:48:00,33.2,26.1,30.02,NNW,336,6.0,12.0,75,0.00,,,0.00,WeatherCatV1.13B119,2013-02-07 21:48:00,
2013-02-07 15:53:00,33.1,26.1,30.02,NNW,344,6.0,14.0,75,0.00,,,0.00,WeatherCatV1.13B119,2013-02-07 21:53:00,
2013-02-07 15:58:00,33.1,26.4,30.02,North,355,7.0,12.0,76,0.00,,,0.00,WeatherCatV1.13B119,2013-02-07 21:58:00,
2013-02-07 16:03:00,33.1,26.1,30.02,North,355,6.0,12.0,75,0.00,,,0.00,WeatherCatV1.13B119,2013-02-07 22:03:00,
2013-02-07 16:08:00,32.9,25.9,30.02,NE,44,11.0,12.0,75,0.00,,,0.00,WeatherCatV1.13B119,2013-02-07 22:08:00,
2013-02-07 16:13:00,32.9,26.2,30.02,North,355,4.0,11.0,76,0.00,,,0.00,WeatherCatV1.13B119,2013-02-07 22:13:00,
2013-02-07 16:18:00,32.9,25.9,30.03,NNE,16,6.0,13.0,75,0.00,,,0.00,WeatherCatV1.13B119,2013-02-07 22:18:00,
2013-02-07 16:23:00,32.8,25.8,30.03,NNW,332,4.0,16.0,75,0.00,,,0.00,WeatherCatV1.13B119,2013-02-07 22:23:00,
2013-02-07 16:28:00,32.8,26.1,30.03,NNW,333,2.0,7.0,76,0.00,,,0.00,WeatherCatV1.13B119,2013-02-07 22:28:00,
2013-02-07 16:33:00,32.8,26.1,30.03,NW,325,4.0,6.0,76,0.00,,,0.00,WeatherCatV1.13B119,2013-02-07 22:33:00,
2013-02-07 16:38:00,32.8,26.1,30.03,NNW,337,14.0,14.0,76,0.00,,,0.00,WeatherCatV1.13B119,2013-02-07 22:38:00,
2013-02-07 16:43:00,32.5,25.5,30.03,NNW,345,9.0,12.0,75,0.00,,,0.00,WeatherCatV1.13B119,2013-02-07 22:43:00,
2013-02-07 16:48:00,32.5,25.8,30.04,North,5,4.0,11.0,76,0.00,,,0.00,WeatherCatV1.13B119,2013-02-07 22:48:00,
2013-02-07 16:53:00,32.4,25.4,30.04,NW,310,11.0,13.0,75,0.00,,,0.00,WeatherCatV1.13B119,2013-02-07 22:53:00,
2013-02-07 16:58:00,32.2,25.5,30.04,NW,321,7.0,12.0,76,0.00,,,0.00,WeatherCatV1.13B119,2013-02-07 22:58:00,
2013-02-07 17:03:00,32.1,25.1,30.05,NNW,332,8.0,11.0,75,0.00,,,0.00,WeatherCatV1.13B119,2013-02-07 23:03:00,
2013-02-07 17:08:00,31.9,24.9,30.05,NNW,339,14.0,17.0,75,0.00,,,0.00,WeatherCatV1.13B119,2013-02-07 23:08:00,
2013-02-07 17:13:00,31.8,24.8,30.05,NNW,334,12.0,17.0,75,0.00,,,0.00,WeatherCatV1.13B119,2013-02-07 23:13:00,
2013-02-07 17:14:00,31.6,24.6,30.05,NW,323,11.0,18.0,75,0.00,,,0.00,WeatherCatV1.13B119,2013-02-07 23:14:00,
2013-02-07 17:19:00,31.6,24.6,30.05,NNW,328,6.0,11.0,75,0.00,,,0.00,WeatherCatV1.13B119,2013-02-07 23:19:00,
2013-02-07 17:24:00,31.6,24.6,30.05,NNW,340,6.0,14.0,75,0.00,,,0.00,WeatherCatV1.13B119,2013-02-07 23:24:00,
2013-02-07 17:29:00,31.5,24.5,30.06,NNW,338,6.0,13.0,75,0.00,,,0.00,WeatherCatV1.13B119,2013-02-07 23:29:00,
2013-02-07 17:34:00,31.5,24.5,30.06,NNW,337,3.0,10.0,75,0.00,,,0.00,WeatherCatV1.13B119,2013-02-07 23:34:00,
2013-02-07 17:39:00,31.3,24.3,30.06,NNW,329,10.0,16.0,75,0.00,,,0.00,WeatherCatV1.13B119,2013-02-07 23:39:00,
2013-02-07 17:44:00,31.3,24.3,30.07,NNW,340,3.0,11.0,75,0.00,,,0.00,WeatherCatV1.13B119,2013-02-07 23:44:00,
2013-02-07 17:49:00,31.3,24.3,30.07,North,11,3.0,10.0,75,0.00,,,0.00,WeatherCatV1.13B119,2013-02-07 23:49:00,
2013-02-07 17:54:00,31.3,24.3,30.07,NNW,333,6.0,12.0,75,0.00,,,0.00,WeatherCatV1.13B119,2013-02-07 23:54:00,
2013-02-07 17:59:00,31.3,24.3,30.08,NNW,338,6.0,9.0,75,0.00,,,0.00,WeatherCatV1.13B119,2013-02-07 23:59:00,
2013-02-07 18:04:00,31.3,24.3,30.08,North,355,8.0,12.0,75,0.00,,,0.00,WeatherCatV1.13B119,2013-02-08 00:04:00,
2013-02-07 18:09:00,31.3,24.3,30.08,NE,53,6.0,6.0,75,0.00,,,0.00,WeatherCatV1.13B119,2013-02-08 00:09:00,
2013-02-07 18:14:00,31.3,24.3,30.08,NNE,19,8.0,8.0,75,0.00,,,0.00,WeatherCatV1.13B119,2013-02-08 00:14:00,
2013-02-07 18:19:00,31.2,24.2,30.08,NNW,342,9.0,9.0,75,0.00,,,0.00,WeatherCatV1.13B119,2013-02-08 00:19:00,
2013-02-07 18:24:00,31.2,24.2,30.08,NNE,16,7.0,10.0,75,0.00,,,0.00,WeatherCatV1.13B119,2013-02-08 00:24:00,
2013-02-07 18:29:00,31.2,23.9,30.09,WNW,294,6.0,16.0,74,0.00,,,0.00,WeatherCatV1.13B119,2013-02-08 00:29:00,
2013-02-07 18:34:00,31.2,23.9,30.09,NNW,342,9.0,14.0,74,0.00,,,0.00,WeatherCatV1.13B119,2013-02-08 00:34:00,
2013-02-07 18:39:00,31.2,23.9,30.09,NW,320,0.0,10.0,74,0.00,,,0.00,WeatherCatV1.13B119,2013-02-08 00:39:00,
2013-02-07 18:44:00,31.2,23.9,30.10,North,0,2.0,7.0,74,0.00,,,0.00,WeatherCatV1.13B119,2013-02-08 00:44:00,
2013-02-07 18:49:00,31.2,24.2,30.10,NNW,340,6.0,10.0,75,0.00,,,0.00,WeatherCatV1.13B119,2013-02-08 00:49:00,
2013-02-07 18:54:00,31.2,24.2,30.10,NNW,338,3.0,11.0,75,0.00,,,0.00,WeatherCatV1.13B119,2013-02-08 00:54:00,
2013-02-07 18:59:00,31.2,24.2,30.11,NNW,333,4.0,7.0,75,0.00,,,0.00,WeatherCatV1.13B119,2013-02-08 00:59:00,
2013-02-07 19:04:00,31.2,24.2,30.11,North,351,5.0,11.0,75,0.00,,,0.00,WeatherCatV1.13B119,2013-02-08 01:04:00,
2013-02-07 19:09:00,31.2,24.2,30.11,NW,326,4.0,12.0,75,0.00,,,0.00,WeatherCatV1.13B119,2013-02-08 01:09:00,
2013-02-07 19:14:00,31.2,24.2,30.11,NNW,334,9.0,15.0,75,0.00,,,0.00,WeatherCatV1.13B119,2013-02-08 01:14:00,
2013-02-07 19:19:00,31.2,24.2,30.11,NNW,336,10.0,10.0,75,0.00,,,0.00,WeatherCatV1.13B119,2013-02-08 01:19:00,
2013-02-07 19:24:00,31.0,24.0,30.11,North,0,3.0,9.0,75,0.00,,,0.00,WeatherCatV1.13B119,2013-02-08 01:24:00,
2013-02-07 19:29:00,31.0,24.0,30.12,NNW,339,11.0,15.0,75,0.00,,,0.00,WeatherCatV1.13B119,2013-02-08 01:29:00,
2013-02-07 19:34:00,31.0,24.0,30.12,NNW,335,11.0,17.0,75,0.00,,,0.00,WeatherCatV1.13B119,2013-02-08 01:34:00,
2013-02-07 19:39:00,30.9,23.9,30.12,NW,304,5.0,12.0,75,0.00,,,0.00,WeatherCatV1.13B119,2013-02-08 01:39:00,
2013-02-07 19:44:00,31.0,24.3,30.12,North,0,1.0,12.0,76,0.00,,,0.00,WeatherCatV1.13B119,2013-02-08 01:44:00,
2013-02-07 19:49:00,30.9,24.2,30.12,NNW,344,4.0,7.0,76,0.00,,,0.00,WeatherCatV1.13B119,2013-02-08 01:49:00,
2013-02-07 19:54:00,30.9,24.2,30.12,North,355,14.0,14.0,76,0.00,,,0.00,WeatherCatV1.13B119,2013-02-08 01:54:00,
2013-02-07 19:59:00,30.9,23.9,30.13,North,11,7.0,13.0,75,0.00,,,0.00,WeatherCatV1.13B119,2013-02-08 01:59:00,
2013-02-07 20:04:00,30.7,23.7,30.13,NNW,344,17.0,17.0,75,0.00,,,0.00,WeatherCatV1.13B119,2013-02-08 02:04:00,
2013-02-07 20:09:00,30.6,23.6,30.13,NNW,330,5.0,11.0,75,0.00,,,0.00,WeatherCatV1.13B119,2013-02-08 02:09:00,
2013-02-07 20:14:00,30.6,24.0,30.13,NW,306,5.0,14.0,76,0.00,,,0.00,WeatherCatV1.13B119,2013-02-08 02:14:00,
2013-02-07 20:19:00,30.6,23.6,30.13,NNW,331,4.0,16.0,75,0.00,,,0.00,WeatherCatV1.13B119,2013-02-08 02:19:00,
2013-02-07 20:24:00,30.4,23.4,30.13,North,5,13.0,13.0,75,0.00,,,0.00,WeatherCatV1.13B119,2013-02-08 02:24:00,
2013-02-07 20:29:00,30.4,23.4,30.14,NW,319,4.0,16.0,75,0.00,,,0.00,WeatherCatV1.13B119,2013-02-08 02:29:00,
2013-02-07 20:34:00,30.6,23.6,30.14,NNW,333,7.0,14.0,75,0.00,,,0.00,WeatherCatV1.13B119,2013-02-08 02:34:00,
2013-02-07 20:39:00,30.6,23.6,30.14,WNW,302,13.0,13.0,75,0.00,,,0.00,WeatherCatV1.13B119,2013-02-08 02:39:00,
2013-02-07 20:44:00,30.4,23.4,30.14,North,349,9.0,10.0,75,0.00,,,0.00,WeatherCatV1.13B119,2013-02-08 02:44:00,
2013-02-07 20:49:00,30.4,23.4,30.14,NNW,331,6.0,9.0,75,0.00,,,0.00,WeatherCatV1.13B119,2013-02-08 02:49:00,
2013-02-07 20:54:00,30.3,23.3,30.14,NW,325,11.0,12.0,75,0.00,,,0.00,WeatherCatV1.13B119,2013-02-08 02:54:00,
2013-02-07 20:59:00,30.3,23.3,30.15,NNW,336,3.0,8.0,75,0.00,,,0.00,WeatherCatV1.13B119,2013-02-08 02:59:00,
2013-02-07 21:04:00,30.3,23.3,30.15,NNW,341,2.0,6.0,75,0.00,,,0.00,WeatherCatV1.13B119,2013-02-08 03:04:00,
2013-02-07 21:09:00,30.4,23.4,30.15,North,11,3.0,11.0,75,0.00,,,0.00,WeatherCatV1.13B119,2013-02-08 03:09:00,
2013-02-07 21:14:00,30.4,23.4,30.15,North,10,5.0,11.0,75,0.00,,,0.00,WeatherCatV1.13B119,2013-02-08 03:14:00,
2013-02-07 21:19:00,30.4,23.4,30.15,North,350,6.0,7.0,75,0.00,,,0.00,WeatherCatV1.13B119,2013-02-08 03:19:00,
2013-02-07 21:24:00,30.3,23.3,30.15,North,355,5.0,6.0,75,0.00,,,0.00,WeatherCatV1.13B119,2013-02-08 03:24:00,
2013-02-07 21:29:00,30.3,23.3,30.16,NNE,19,6.0,12.0,75,0.00,,,0.00,WeatherCatV1.13B119,2013-02-08 03:29:00,
2013-02-07 21:34:00,30.1,23.2,30.16,North,5,5.0,11.0,75,0.00,,,0.00,WeatherCatV1.13B119,2013-02-08 03:34:00,
2013-02-07 21:39:00,30.1,23.2,30.16,NE,54,5.0,9.0,75,0.00,,,0.00,WeatherCatV1.13B119,2013-02-08 03:39:00,
2013-02-07 21:44:00,30.1,23.2,30.16,North,350,2.0,11.0,75,0.00,,,0.00,WeatherCatV1.13B119,2013-02-08 03:44:00,
2013-02-07 21:49:00,30.0,23.1,30.16,NNW,340,2.0,10.0,75,0.00,,,0.00,WeatherCatV1.13B119,2013-02-08 03:49:00,
2013-02-07 21:54:00,30.0,23.1,30.16,WNW,295,3.0,7.0,75,0.00,,,0.00,WeatherCatV1.13B119,2013-02-08 03:54:00,
2013-02-07 21:59:00,30.1,23.2,30.16,NNW,338,4.0,6.0,75,0.00,,,0.00,WeatherCatV1.13B119,2013-02-08 03:59:00,
2013-02-07 22:04:00,30.1,23.2,30.16,North,355,3.0,6.0,75,0.00,,,0.00,WeatherCatV1.13B119,2013-02-08 04:04:00,
2013-02-07 22:09:00,30.0,23.1,30.16,NNE,15,3.0,11.0,75,0.00,,,0.00,WeatherCatV1.13B119,2013-02-08 04:09:00,
2013-02-07 22:14:00,30.0,23.1,30.16,NNW,333,11.0,12.0,75,0.00,,,0.00,WeatherCatV1.13B119,2013-02-08 04:14:00,
2013-02-07 22:19:00,30.0,22.7,30.16,NW,319,9.0,13.0,74,0.00,,,0.00,WeatherCatV1.13B119,2013-02-08 04:19:00,
2013-02-07 22:24:00,29.8,22.5,30.16,NNW,332,1.0,10.0,74,0.00,,,0.00,WeatherCatV1.13B119,2013-02-08 04:24:00,
2013-02-07 22:29:00,29.8,22.5,30.16,NNW,340,9.0,9.0,74,0.00,,,0.00,WeatherCatV1.13B119,2013-02-08 04:29:00,
2013-02-07 22:34:00,29.8,22.5,30.16,NNW,342,2.0,9.0,74,0.00,,,0.00,WeatherCatV1.13B119,2013-02-08 04:34:00,
2013-02-07 22:39:00,29.8,22.5,30.16,North,0,6.0,10.0,74,0.00,,,0.00,WeatherCatV1.13B119,2013-02-08 04:39:00,
2013-02-07 22:44:00,29.8,22.2,30.16,NW,323,7.0,9.0,73,0.00,,,0.00,WeatherCatV1.13B119,2013-02-08 04:44:00,
2013-02-07 22:49:00,29.8,22.2,30.16,NNW,348,6.0,9.0,73,0.00,,,0.00,WeatherCatV1.13B119,2013-02-08 04:49:00,
2013-02-07 22:54:00,29.8,22.2,30.16,NNW,330,10.0,10.0,73,0.00,,,0.00,WeatherCatV1.13B119,2013-02-08 04:54:00,
2013-02-07 22:59:00,29.8,22.2,30.16,NNW,331,2.0,6.0,73,0.00,,,0.00,WeatherCatV1.13B119,2013-02-08 04:59:00,
2013-02-07 23:00:00,29.8,22.2,30.16,NNW,331,2.0,6.0,73,0.00,,,0.00,WeatherCatV1.13B119,2013-02-08 05:00:00,
2013-02-07 23:05:00,29.8,22.2,30.16,NNW,333,7.0,7.0,73,0.00,,,0.00,WeatherCatV1.13B119,2013-02-08 05:05:00,
2013-02-07 23:10:00,29.8,21.9,30.16,NNW,344,3.0,7.0,72,0.00,,,0.00,WeatherCatV1.13B119,2013-02-08 05:10:00,
2013-02-07 23:15:00,30.0,22.1,30.17,North,355,5.0,5.0,72,0.00,,,0.00,WeatherCatV1.13B119,2013-02-08 05:15:00,
2013-02-07 23:20:00,30.0,22.1,30.17,North,349,4.0,5.0,72,0.00,,,0.00,WeatherCatV1.13B119,2013-02-08 05:20:00,
2013-02-07 23:25:00,30.0,22.1,30.17,NNW,334,1.0,3.0,72,0.00,,,0.00,WeatherCatV1.13B119,2013-02-08 05:25:00,
2013-02-07 23:30:00,30.0,22.1,30.17,NNW,335,1.0,3.0,72,0.00,,,0.00,WeatherCatV1.13B119,2013-02-08 05:30:00,
2013-02-07 23:35:00,30.0,22.1,30.17,NNW,335,1.0,4.0,72,0.00,,,0.00,WeatherCatV1.13B119,2013-02-08 05:35:00,
2013-02-07 23:40:00,30.0,22.1,30.17,NNW,333,2.0,3.0,72,0.00,,,0.00,WeatherCatV1.13B119,2013-02-08 05:40:00,
2013-02-07 23:45:00,30.0,22.1,30.17,NNW,348,3.0,4.0,72,0.00,,,0.00,WeatherCatV1.13B119,2013-02-08 05:45:00,
2013-02-07 23:50:00,30.0,22.1,30.17,NNW,348,0.0,0.0,72,0.00,,,0.00,WeatherCatV1.13B119,2013-02-08 05:50:00,
2013-02-07 23:55:00,30.1,22.5,30.17,NNW,348,0.0,2.0,73,0.00,,,0.00,WeatherCatV1.13B119,2013-02-08 05:55:00,